Year,Month,Day,Hour,Minute,Value (Times are PST for temperature in C)
2013,09,24,00,00,11.50
2013,09,24,00,01,11.50
2013,09,24,00,02,11.40
2013,09,24,00,03,11.40
2013,09,24,00,04,11.40
2013,09,24,00,05,11.40
2013,09,24,00,06,11.40
2013,09,24,00,07,11.40
2013,09,24,00,08,11.40
2013,09,24,00,09,11.30
2013,09,24,00,10,11.30
2013,09,24,00,11,11.20
2013,09,24,00,12,11.20
2013,09,24,00,13,11.10
2013,09,24,00,14,11.00
2013,09,24,00,15,11.00
2013,09,24,00,16,11.00
2013,09,24,00,17,10.90
2013,09,24,00,18,10.90
2013,09,24,00,19,10.90
2013,09,24,00,20,10.90
2013,09,24,00,21,11.00
2013,09,24,00,22,11.00
2013,09,24,00,23,11.00
2013,09,24,00,24,11.00
2013,09,24,00,25,11.00
2013,09,24,00,26,11.10
2013,09,24,00,27,11.00
2013,09,24,00,28,11.00
2013,09,24,00,29,11.00
2013,09,24,00,30,11.10
2013,09,24,00,31,11.10
2013,09,24,00,32,11.10
2013,09,24,00,33,11.10
2013,09,24,00,34,11.10
2013,09,24,00,35,11.20
2013,09,24,00,36,11.20
2013,09,24,00,37,11.20
2013,09,24,00,38,11.20
2013,09,24,00,39,11.20
2013,09,24,00,40,11.20
2013,09,24,00,41,11.30
2013,09,24,00,42,11.30
2013,09,24,00,43,11.40
2013,09,24,00,44,11.50
2013,09,24,00,45,11.50
2013,09,24,00,46,11.50
2013,09,24,00,47,11.60
2013,09,24,00,48,11.70
2013,09,24,00,49,11.80
2013,09,24,00,50,11.80
2013,09,24,00,51,11.80
2013,09,24,00,52,11.80
2013,09,24,00,53,11.80
2013,09,24,00,54,11.70
2013,09,24,00,55,11.70
2013,09,24,00,56,11.70
2013,09,24,00,57,11.80
2013,09,24,00,58,11.80
2013,09,24,00,59,11.80
2013,09,24,01,00,11.90
2013,09,24,01,01,11.90
2013,09,24,01,02,11.90
2013,09,24,01,03,11.80
2013,09,24,01,04,11.80
2013,09,24,01,05,11.90
2013,09,24,01,06,11.90
2013,09,24,01,07,11.90
2013,09,24,01,08,11.90
2013,09,24,01,09,12.00
2013,09,24,01,10,12.00
2013,09,24,01,11,12.10
2013,09,24,01,12,12.10
2013,09,24,01,13,12.20
2013,09,24,01,14,12.20
2013,09,24,01,15,12.30
2013,09,24,01,16,12.30
2013,09,24,01,17,12.30
2013,09,24,01,18,12.20
2013,09,24,01,19,12.20
2013,09,24,01,20,12.20
2013,09,24,01,21,12.10
2013,09,24,01,22,11.90
2013,09,24,01,23,11.80
2013,09,24,01,24,11.80
2013,09,24,01,25,11.70
2013,09,24,01,26,11.70
2013,09,24,01,27,11.70
2013,09,24,01,28,11.70
2013,09,24,01,29,11.80
2013,09,24,01,30,11.80
2013,09,24,01,31,11.70
2013,09,24,01,32,11.70
2013,09,24,01,33,11.70
2013,09,24,01,34,11.80
2013,09,24,01,35,11.80
2013,09,24,01,36,11.90
2013,09,24,01,37,12.00
2013,09,24,01,38,12.00
2013,09,24,01,39,12.10
2013,09,24,01,40,12.10
2013,09,24,01,41,12.10
2013,09,24,01,42,12.10
2013,09,24,01,43,12.10
2013,09,24,01,44,12.20
2013,09,24,01,45,12.20
2013,09,24,01,46,12.20
2013,09,24,01,47,12.20
2013,09,24,01,48,12.20
2013,09,24,01,49,12.20
2013,09,24,01,50,12.20
2013,09,24,01,51,12.20
2013,09,24,01,52,12.20
2013,09,24,01,53,12.20
2013,09,24,01,54,12.20
2013,09,24,01,55,12.20
2013,09,24,01,56,12.20
2013,09,24,01,57,12.20
2013,09,24,01,58,12.20
2013,09,24,01,59,12.30
2013,09,24,02,00,12.30
2013,09,24,02,01,12.30
2013,09,24,02,02,12.30
2013,09,24,02,03,12.20
2013,09,24,02,04,12.10
2013,09,24,02,05,12.00
2013,09,24,02,06,11.90
2013,09,24,02,07,11.90
2013,09,24,02,08,11.90
2013,09,24,02,09,11.90
2013,09,24,02,10,11.90
2013,09,24,02,11,11.90
2013,09,24,02,12,11.90
2013,09,24,02,13,12.00
2013,09,24,02,14,12.00
2013,09,24,02,15,12.00
2013,09,24,02,16,12.10
2013,09,24,02,17,12.10
2013,09,24,02,18,12.10
2013,09,24,02,19,12.10
2013,09,24,02,20,12.10
2013,09,24,02,21,12.10
2013,09,24,02,22,12.10
2013,09,24,02,23,12.10
2013,09,24,02,24,12.10
2013,09,24,02,25,12.00
2013,09,24,02,26,11.90
2013,09,24,02,27,11.80
2013,09,24,02,28,11.70
2013,09,24,02,29,11.70
2013,09,24,02,30,11.60
2013,09,24,02,31,11.60
2013,09,24,02,32,11.50
2013,09,24,02,33,11.50
2013,09,24,02,34,11.40
2013,09,24,02,35,11.30
2013,09,24,02,36,11.30
2013,09,24,02,37,11.30
2013,09,24,02,38,11.20
2013,09,24,02,39,11.20
2013,09,24,02,40,11.30
2013,09,24,02,41,11.30
2013,09,24,02,42,11.30
2013,09,24,02,43,11.30
2013,09,24,02,44,11.30
2013,09,24,02,45,11.30
2013,09,24,02,46,11.30
2013,09,24,02,47,11.30
2013,09,24,02,48,11.30
2013,09,24,02,49,11.30
2013,09,24,02,50,11.30
2013,09,24,02,51,11.30
2013,09,24,02,52,11.30
2013,09,24,02,53,11.30
2013,09,24,02,54,11.30
2013,09,24,02,55,11.30
2013,09,24,02,56,11.30
2013,09,24,02,57,11.30
2013,09,24,02,58,11.30
2013,09,24,02,59,11.30
2013,09,24,03,00,11.30
2013,09,24,03,01,11.30
2013,09,24,03,02,11.30
2013,09,24,03,03,11.30
2013,09,24,03,04,11.30
2013,09,24,03,05,11.30
2013,09,24,03,06,11.30
2013,09,24,03,07,11.30
2013,09,24,03,08,11.20
2013,09,24,03,09,11.20
2013,09,24,03,10,11.20
2013,09,24,03,11,11.20
2013,09,24,03,12,11.10
2013,09,24,03,13,11.10
2013,09,24,03,14,11.10
2013,09,24,03,15,11.00
2013,09,24,03,16,11.00
2013,09,24,03,17,11.00
2013,09,24,03,18,11.00
2013,09,24,03,19,11.00
2013,09,24,03,20,11.00
2013,09,24,03,21,10.80
2013,09,24,03,22,10.70
2013,09,24,03,23,10.70
2013,09,24,03,24,10.70
2013,09,24,03,25,10.70
2013,09,24,03,26,10.70
2013,09,24,03,27,10.70
2013,09,24,03,28,10.70
2013,09,24,03,29,10.80
2013,09,24,03,30,10.80
2013,09,24,03,31,10.80
2013,09,24,03,32,10.80
2013,09,24,03,33,10.80
2013,09,24,03,34,10.80
2013,09,24,03,35,10.80
2013,09,24,03,36,10.80
2013,09,24,03,37,10.80
2013,09,24,03,38,10.80
2013,09,24,03,39,10.80
2013,09,24,03,40,10.80
2013,09,24,03,41,10.80
2013,09,24,03,42,10.90
2013,09,24,03,43,10.90
2013,09,24,03,44,10.90
2013,09,24,03,45,10.80
2013,09,24,03,46,10.80
2013,09,24,03,47,10.80
2013,09,24,03,48,10.80
2013,09,24,03,49,10.80
2013,09,24,03,50,10.80
2013,09,24,03,51,10.80
2013,09,24,03,52,10.80
2013,09,24,03,53,10.90
2013,09,24,03,54,10.90
2013,09,24,03,55,10.90
2013,09,24,03,56,10.90
2013,09,24,03,57,10.90
2013,09,24,03,58,10.90
2013,09,24,03,59,10.90
2013,09,24,04,00,10.90
2013,09,24,04,01,10.90
2013,09,24,04,02,10.90
2013,09,24,04,03,10.90
2013,09,24,04,04,10.90
2013,09,24,04,05,10.90
2013,09,24,04,06,10.90
2013,09,24,04,07,10.90
2013,09,24,04,08,10.90
2013,09,24,04,09,10.90
2013,09,24,04,10,10.90
2013,09,24,04,11,10.90
2013,09,24,04,12,10.90
2013,09,24,04,13,10.80
2013,09,24,04,14,10.80
2013,09,24,04,15,10.70
2013,09,24,04,16,10.70
2013,09,24,04,17,10.70
2013,09,24,04,18,10.70
2013,09,24,04,19,10.70
2013,09,24,04,20,10.70
2013,09,24,04,21,10.70
2013,09,24,04,22,10.70
2013,09,24,04,23,10.70
2013,09,24,04,24,10.70
2013,09,24,04,25,10.70
2013,09,24,04,26,10.70
2013,09,24,04,27,10.70
2013,09,24,04,28,10.80
2013,09,24,04,29,10.80
2013,09,24,04,30,10.80
2013,09,24,04,31,10.80
2013,09,24,04,32,10.80
2013,09,24,04,33,10.80
2013,09,24,04,34,10.80
2013,09,24,04,35,10.80
2013,09,24,04,36,10.80
2013,09,24,04,37,10.80
2013,09,24,04,38,10.80
2013,09,24,04,39,10.70
2013,09,24,04,40,10.70
2013,09,24,04,41,10.70
2013,09,24,04,42,10.60
2013,09,24,04,43,10.60
2013,09,24,04,44,10.50
2013,09,24,04,45,10.50
2013,09,24,04,46,10.60
2013,09,24,04,47,10.60
2013,09,24,04,48,10.60
2013,09,24,04,49,10.70
2013,09,24,04,50,10.70
2013,09,24,04,51,10.70
2013,09,24,04,52,10.70
2013,09,24,04,53,10.70
2013,09,24,04,54,10.70
2013,09,24,04,55,10.70
2013,09,24,04,56,10.70
2013,09,24,04,57,10.70
2013,09,24,04,58,10.70
2013,09,24,04,59,10.70
2013,09,24,05,00,10.70
2013,09,24,05,01,10.60
2013,09,24,05,02,10.60
2013,09,24,05,03,10.60
2013,09,24,05,04,10.60
2013,09,24,05,05,10.60
2013,09,24,05,06,10.60
2013,09,24,05,07,10.60
2013,09,24,05,08,10.60
2013,09,24,05,09,10.60
2013,09,24,05,10,10.60
2013,09,24,05,11,10.50
2013,09,24,05,12,10.50
2013,09,24,05,13,10.50
2013,09,24,05,14,10.50
2013,09,24,05,15,10.50
2013,09,24,05,16,10.50
2013,09,24,05,17,10.50
2013,09,24,05,18,10.50
2013,09,24,05,19,10.50
2013,09,24,05,20,10.50
2013,09,24,05,21,10.50
2013,09,24,05,22,10.50
2013,09,24,05,23,10.50
2013,09,24,05,24,10.50
2013,09,24,05,25,10.50
2013,09,24,05,26,10.50
2013,09,24,05,27,10.50
2013,09,24,05,28,10.50
2013,09,24,05,29,10.50
2013,09,24,05,30,10.50
2013,09,24,05,31,10.50
2013,09,24,05,32,10.50
2013,09,24,05,33,10.50
2013,09,24,05,34,10.50
2013,09,24,05,35,10.40
2013,09,24,05,36,10.40
2013,09,24,05,37,10.40
2013,09,24,05,38,10.40
2013,09,24,05,39,10.40
2013,09,24,05,40,10.40
2013,09,24,05,41,10.40
2013,09,24,05,42,10.40
2013,09,24,05,43,10.40
2013,09,24,05,44,10.40
2013,09,24,05,45,10.40
2013,09,24,05,46,10.40
2013,09,24,05,47,10.40
2013,09,24,05,48,10.40
2013,09,24,05,49,10.40
2013,09,24,05,50,10.40
2013,09,24,05,51,10.40
2013,09,24,05,52,10.40
2013,09,24,05,53,10.40
2013,09,24,05,54,10.40
2013,09,24,05,55,10.40
2013,09,24,05,56,10.40
2013,09,24,05,57,10.40
2013,09,24,05,58,10.40
2013,09,24,05,59,10.40
2013,09,24,06,00,10.40
2013,09,24,06,01,10.40
2013,09,24,06,02,10.40
2013,09,24,06,03,10.40
2013,09,24,06,04,10.40
2013,09,24,06,05,10.40
2013,09,24,06,06,10.30
2013,09,24,06,07,10.30
2013,09,24,06,08,10.30
2013,09,24,06,09,10.30
2013,09,24,06,10,10.30
2013,09,24,06,11,10.30
2013,09,24,06,12,10.30
2013,09,24,06,13,10.30
2013,09,24,06,14,10.30
2013,09,24,06,15,10.30
2013,09,24,06,16,10.30
2013,09,24,06,17,10.30
2013,09,24,06,18,10.30
2013,09,24,06,19,10.30
2013,09,24,06,20,10.30
2013,09,24,06,21,10.30
2013,09,24,06,22,10.30
2013,09,24,06,23,10.30
2013,09,24,06,24,10.30
2013,09,24,06,25,10.40
2013,09,24,06,26,10.40
2013,09,24,06,27,10.40
2013,09,24,06,28,10.40
2013,09,24,06,29,10.40
2013,09,24,06,30,10.40
2013,09,24,06,31,10.40
2013,09,24,06,32,10.40
2013,09,24,06,33,10.40
2013,09,24,06,34,10.40
2013,09,24,06,35,10.40
2013,09,24,06,36,10.40
2013,09,24,06,37,10.40
2013,09,24,06,38,10.40
2013,09,24,06,39,10.40
2013,09,24,06,40,10.40
2013,09,24,06,41,10.40
2013,09,24,06,42,10.40
2013,09,24,06,43,10.50
2013,09,24,06,44,10.50
2013,09,24,06,45,10.50
2013,09,24,06,46,10.50
2013,09,24,06,47,10.50
2013,09,24,06,48,10.50
2013,09,24,06,49,10.50
2013,09,24,06,50,10.50
2013,09,24,06,51,10.50
2013,09,24,06,52,10.50
2013,09,24,06,53,10.50
2013,09,24,06,54,10.50
2013,09,24,06,55,10.40
2013,09,24,06,56,10.40
2013,09,24,06,57,10.40
2013,09,24,06,58,10.40
2013,09,24,06,59,10.30
2013,09,24,07,00,10.30
2013,09,24,07,01,10.30
2013,09,24,07,02,10.30
2013,09,24,07,03,10.30
2013,09,24,07,04,10.30
2013,09,24,07,05,10.30
2013,09,24,07,06,10.30
2013,09,24,07,07,10.20
2013,09,24,07,08,10.20
2013,09,24,07,09,10.20
2013,09,24,07,10,10.20
2013,09,24,07,11,10.20
2013,09,24,07,12,10.30
2013,09,24,07,13,10.30
2013,09,24,07,14,10.30
2013,09,24,07,15,10.30
2013,09,24,07,16,10.30
2013,09,24,07,17,10.30
2013,09,24,07,18,10.30
2013,09,24,07,19,10.30
2013,09,24,07,20,10.30
2013,09,24,07,21,10.30
2013,09,24,07,22,10.30
2013,09,24,07,23,10.30
2013,09,24,07,24,10.30
2013,09,24,07,25,10.30
2013,09,24,07,26,10.30
2013,09,24,07,27,10.30
2013,09,24,07,28,10.40
2013,09,24,07,29,10.40
2013,09,24,07,30,10.40
2013,09,24,07,31,10.40
2013,09,24,07,32,10.40
2013,09,24,07,33,10.40
2013,09,24,07,34,10.40
2013,09,24,07,35,10.30
2013,09,24,07,36,10.30
2013,09,24,07,37,10.30
2013,09,24,07,38,10.30
2013,09,24,07,39,10.30
2013,09,24,07,40,10.30
2013,09,24,07,41,10.30
2013,09,24,07,42,10.30
2013,09,24,07,43,10.30
2013,09,24,07,44,10.30
2013,09,24,07,45,10.30
2013,09,24,07,46,10.30
2013,09,24,07,47,10.30
2013,09,24,07,48,10.30
2013,09,24,07,49,10.30
2013,09,24,07,50,10.30
2013,09,24,07,51,10.30
2013,09,24,07,52,10.30
2013,09,24,07,53,10.30
2013,09,24,07,54,10.30
2013,09,24,07,55,10.30
2013,09,24,07,56,10.30
2013,09,24,07,57,10.30
2013,09,24,07,58,10.30
2013,09,24,07,59,10.30
2013,09,24,08,00,10.30
2013,09,24,08,01,10.30
2013,09,24,08,02,10.30
2013,09,24,08,03,10.30
2013,09,24,08,04,10.40
2013,09,24,08,05,10.40
2013,09,24,08,06,10.30
2013,09,24,08,07,10.40
2013,09,24,08,08,10.40
2013,09,24,08,09,10.40
2013,09,24,08,10,10.30
2013,09,24,08,11,10.30
2013,09,24,08,12,10.30
2013,09,24,08,13,10.30
2013,09,24,08,14,10.30
2013,09,24,08,15,10.30
2013,09,24,08,16,10.30
2013,09,24,08,17,10.30
2013,09,24,08,18,10.30
2013,09,24,08,19,10.30
2013,09,24,08,20,10.30
2013,09,24,08,21,10.30
2013,09,24,08,22,10.30
2013,09,24,08,23,10.30
2013,09,24,08,24,10.30
2013,09,24,08,25,10.30
2013,09,24,08,26,10.30
2013,09,24,08,27,10.30
2013,09,24,08,28,10.30
2013,09,24,08,29,10.30
2013,09,24,08,30,10.30
2013,09,24,08,31,10.30
2013,09,24,08,32,10.40
2013,09,24,08,33,10.40
2013,09,24,08,34,10.40
2013,09,24,08,35,10.40
2013,09,24,08,36,10.50
2013,09,24,08,37,10.50
2013,09,24,08,38,10.50
2013,09,24,08,39,10.60
2013,09,24,08,40,10.60
2013,09,24,08,41,10.60
2013,09,24,08,42,10.60
2013,09,24,08,43,10.60
2013,09,24,08,44,10.60
2013,09,24,08,45,10.70
2013,09,24,08,46,10.70
2013,09,24,08,47,10.70
2013,09,24,08,48,10.70
2013,09,24,08,49,10.70
2013,09,24,08,50,10.70
2013,09,24,08,51,10.80
2013,09,24,08,52,10.80
2013,09,24,08,53,10.80
2013,09,24,08,54,10.80
2013,09,24,08,55,10.80
2013,09,24,08,56,10.80
2013,09,24,08,57,10.80
2013,09,24,08,58,10.70
2013,09,24,08,59,10.70
2013,09,24,09,00,10.70
2013,09,24,09,01,10.70
2013,09,24,09,02,10.60
2013,09,24,09,03,10.60
2013,09,24,09,04,10.60
2013,09,24,09,05,10.60
2013,09,24,09,06,10.60
2013,09,24,09,07,10.60
2013,09,24,09,08,10.50
2013,09,24,09,09,10.50
2013,09,24,09,10,10.50
2013,09,24,09,11,10.50
2013,09,24,09,12,10.50
2013,09,24,09,13,10.50
2013,09,24,09,14,10.40
2013,09,24,09,15,10.40
2013,09,24,09,16,10.40
2013,09,24,09,17,10.40
2013,09,24,09,18,10.40
2013,09,24,09,19,10.40
2013,09,24,09,20,10.40
2013,09,24,09,21,10.40
2013,09,24,09,22,10.30
2013,09,24,09,23,10.30
2013,09,24,09,24,10.30
2013,09,24,09,25,10.30
2013,09,24,09,26,10.30
2013,09,24,09,27,10.30
2013,09,24,09,28,10.30
2013,09,24,09,29,10.30
2013,09,24,09,30,10.30
2013,09,24,09,31,10.30
2013,09,24,09,32,10.30
2013,09,24,09,33,10.30
2013,09,24,09,34,10.30
2013,09,24,09,35,10.30
2013,09,24,09,36,10.30
2013,09,24,09,37,10.30
2013,09,24,09,38,10.30
2013,09,24,09,39,10.30
2013,09,24,09,40,10.40
2013,09,24,09,41,10.40
2013,09,24,09,42,10.40
2013,09,24,09,43,10.40
2013,09,24,09,44,10.40
2013,09,24,09,45,10.40
2013,09,24,09,46,10.40
2013,09,24,09,47,10.40
2013,09,24,09,48,10.40
2013,09,24,09,49,10.40
2013,09,24,09,50,10.50
2013,09,24,09,51,10.50
2013,09,24,09,52,10.50
2013,09,24,09,53,10.60
2013,09,24,09,54,10.60
2013,09,24,09,55,10.60
2013,09,24,09,56,10.50
2013,09,24,09,57,10.50
2013,09,24,09,58,10.50
2013,09,24,09,59,10.50
2013,09,24,10,00,10.50
2013,09,24,10,01,10.60
2013,09,24,10,02,10.60
2013,09,24,10,03,10.60
2013,09,24,10,04,10.60
2013,09,24,10,05,10.60
2013,09,24,10,06,10.70
2013,09,24,10,07,10.70
2013,09,24,10,08,10.70
2013,09,24,10,09,10.70
2013,09,24,10,10,10.70
2013,09,24,10,11,10.80
2013,09,24,10,12,10.80
2013,09,24,10,13,10.80
2013,09,24,10,14,10.80
2013,09,24,10,15,10.80
2013,09,24,10,16,10.80
2013,09,24,10,17,10.80
2013,09,24,10,18,10.80
2013,09,24,10,19,10.90
2013,09,24,10,20,10.90
2013,09,24,10,21,10.90
2013,09,24,10,22,10.90
2013,09,24,10,23,10.90
2013,09,24,10,24,10.90
2013,09,24,10,25,10.90
2013,09,24,10,26,10.90
2013,09,24,10,27,11.00
2013,09,24,10,28,11.00
2013,09,24,10,29,11.00
2013,09,24,10,30,11.00
2013,09,24,10,31,11.00
2013,09,24,10,32,11.00
2013,09,24,10,33,11.00
2013,09,24,10,34,10.90
2013,09,24,10,35,10.90
2013,09,24,10,36,10.90
2013,09,24,10,37,10.80
2013,09,24,10,38,10.80
2013,09,24,10,39,10.80
2013,09,24,10,40,10.80
2013,09,24,10,41,10.80
2013,09,24,10,42,10.90
2013,09,24,10,43,10.90
2013,09,24,10,44,10.90
2013,09,24,10,45,11.00
2013,09,24,10,46,11.00
2013,09,24,10,47,11.10
2013,09,24,10,48,11.10
2013,09,24,10,49,11.10
2013,09,24,10,50,11.10
2013,09,24,10,51,11.20
2013,09,24,10,52,11.20
2013,09,24,10,53,11.20
2013,09,24,10,54,11.30
2013,09,24,10,55,11.30
2013,09,24,10,56,11.30
2013,09,24,10,57,11.30
2013,09,24,10,58,11.30
2013,09,24,10,59,11.40
2013,09,24,11,00,11.40
2013,09,24,11,01,11.40
2013,09,24,11,02,11.40
2013,09,24,11,03,11.40
2013,09,24,11,04,11.40
2013,09,24,11,05,11.30
2013,09,24,11,06,11.30
2013,09,24,11,07,11.30
2013,09,24,11,08,11.30
2013,09,24,11,09,11.30
2013,09,24,11,10,11.20
2013,09,24,11,11,11.10
2013,09,24,11,12,11.10
2013,09,24,11,13,11.00
2013,09,24,11,14,11.00
2013,09,24,11,15,10.90
2013,09,24,11,16,10.90
2013,09,24,11,17,10.80
2013,09,24,11,18,10.80
2013,09,24,11,19,10.80
2013,09,24,11,20,10.70
2013,09,24,11,21,10.70
2013,09,24,11,22,10.70
2013,09,24,11,23,10.60
2013,09,24,11,24,10.60
2013,09,24,11,25,10.60
2013,09,24,11,26,10.60
2013,09,24,11,27,10.60
2013,09,24,11,28,10.60
2013,09,24,11,29,10.60
2013,09,24,11,30,10.50
2013,09,24,11,31,10.50
2013,09,24,11,32,10.50
2013,09,24,11,33,10.50
2013,09,24,11,34,10.50
2013,09,24,11,35,10.50
2013,09,24,11,36,10.50
2013,09,24,11,37,10.50
2013,09,24,11,38,10.50
2013,09,24,11,39,10.50
2013,09,24,11,40,10.50
2013,09,24,11,41,10.50
2013,09,24,11,42,10.60
2013,09,24,11,43,10.60
2013,09,24,11,44,10.60
2013,09,24,11,45,10.60
2013,09,24,11,46,10.60
2013,09,24,11,47,10.60
2013,09,24,11,48,10.60
2013,09,24,11,49,10.60
2013,09,24,11,50,10.60
2013,09,24,11,51,10.60
2013,09,24,11,52,10.60
2013,09,24,11,53,10.60
2013,09,24,11,54,10.60
2013,09,24,11,55,10.70
2013,09,24,11,56,10.70
2013,09,24,11,57,10.70
2013,09,24,11,58,10.70
2013,09,24,11,59,10.70
2013,09,24,12,00,10.70
2013,09,24,12,01,10.70
2013,09,24,12,02,10.60
2013,09,24,12,03,10.60
2013,09,24,12,04,10.60
2013,09,24,12,05,10.60
2013,09,24,12,06,10.60
2013,09,24,12,07,10.70
2013,09,24,12,08,10.70
2013,09,24,12,09,10.70
2013,09,24,12,10,10.70
2013,09,24,12,11,10.70
2013,09,24,12,12,10.70
2013,09,24,12,13,10.70
2013,09,24,12,14,10.70
2013,09,24,12,15,10.70
2013,09,24,12,16,10.70
2013,09,24,12,17,10.70
2013,09,24,12,18,10.70
2013,09,24,12,19,10.70
2013,09,24,12,20,10.70
2013,09,24,12,21,10.70
2013,09,24,12,22,10.70
2013,09,24,12,23,10.70
2013,09,24,12,24,10.70
2013,09,24,12,25,10.60
2013,09,24,12,26,10.60
2013,09,24,12,27,10.60
2013,09,24,12,28,10.60
2013,09,24,12,29,10.60
2013,09,24,12,30,10.60
2013,09,24,12,31,10.60
2013,09,24,12,32,10.70
2013,09,24,12,33,10.70
2013,09,24,12,34,10.70
2013,09,24,12,35,10.60
2013,09,24,12,36,10.60
2013,09,24,12,37,10.60
2013,09,24,12,38,10.60
2013,09,24,12,39,10.60
2013,09,24,12,40,10.60
2013,09,24,12,41,10.60
2013,09,24,12,42,10.60
2013,09,24,12,43,10.60
2013,09,24,12,44,10.60
2013,09,24,12,45,10.60
2013,09,24,12,46,10.60
2013,09,24,12,47,10.60
2013,09,24,12,48,10.60
2013,09,24,12,49,10.60
2013,09,24,12,50,10.60
2013,09,24,12,51,10.60
2013,09,24,12,52,10.60
2013,09,24,12,53,10.60
2013,09,24,12,54,10.60
2013,09,24,12,55,10.60
2013,09,24,12,56,10.60
2013,09,24,12,57,10.60
2013,09,24,12,58,10.60
2013,09,24,12,59,10.70
2013,09,24,13,00,10.70
2013,09,24,13,01,10.70
2013,09,24,13,02,10.70
2013,09,24,13,03,10.70
2013,09,24,13,04,10.70
2013,09,24,13,05,10.70
2013,09,24,13,06,10.70
2013,09,24,13,07,10.70
2013,09,24,13,08,10.70
2013,09,24,13,09,10.60
2013,09,24,13,10,10.60
2013,09,24,13,11,10.60
2013,09,24,13,12,10.60
2013,09,24,13,13,10.60
2013,09,24,13,14,10.60
2013,09,24,13,15,10.60
2013,09,24,13,16,10.60
2013,09,24,13,17,10.60
2013,09,24,13,18,10.60
2013,09,24,13,19,10.60
2013,09,24,13,20,10.60
2013,09,24,13,21,10.60
2013,09,24,13,22,10.60
2013,09,24,13,23,10.60
2013,09,24,13,24,10.60
2013,09,24,13,25,10.60
2013,09,24,13,26,10.60
2013,09,24,13,27,10.60
2013,09,24,13,28,10.60
2013,09,24,13,29,10.60
2013,09,24,13,30,10.60
2013,09,24,13,31,10.60
2013,09,24,13,32,10.60
2013,09,24,13,33,10.70
2013,09,24,13,34,10.70
2013,09,24,13,35,10.70
2013,09,24,13,36,10.70
2013,09,24,13,37,10.70
2013,09,24,13,38,10.80
2013,09,24,13,39,10.80
2013,09,24,13,40,10.80
2013,09,24,13,41,10.80
2013,09,24,13,42,10.90
2013,09,24,13,43,10.90
2013,09,24,13,44,10.90
2013,09,24,13,45,10.90
2013,09,24,13,46,10.90
2013,09,24,13,47,10.90
2013,09,24,13,48,10.90
2013,09,24,13,49,10.90
2013,09,24,13,50,10.90
2013,09,24,13,51,10.90
2013,09,24,13,52,10.90
2013,09,24,13,53,10.90
2013,09,24,13,54,10.90
2013,09,24,13,55,10.90
2013,09,24,13,56,11.00
2013,09,24,13,57,11.00
2013,09,24,13,58,11.00
2013,09,24,13,59,11.10
2013,09,24,14,00,11.10
2013,09,24,14,01,11.10
2013,09,24,14,02,11.20
2013,09,24,14,03,11.20
2013,09,24,14,04,11.30
2013,09,24,14,05,11.30
2013,09,24,14,06,11.30
2013,09,24,14,07,11.30
2013,09,24,14,08,11.40
2013,09,24,14,09,11.40
2013,09,24,14,10,11.40
2013,09,24,14,11,11.40
2013,09,24,14,12,11.40
2013,09,24,14,13,11.40
2013,09,24,14,14,11.40
2013,09,24,14,15,11.30
2013,09,24,14,16,11.30
2013,09,24,14,17,11.30
2013,09,24,14,18,11.30
2013,09,24,14,19,11.40
2013,09,24,14,20,11.40
2013,09,24,14,21,11.40
2013,09,24,14,22,11.40
2013,09,24,14,23,11.40
2013,09,24,14,24,11.50
2013,09,24,14,25,11.50
2013,09,24,14,26,11.50
2013,09,24,14,27,11.50
2013,09,24,14,28,11.50
2013,09,24,14,29,11.50
2013,09,24,14,30,11.50
2013,09,24,14,31,11.50
2013,09,24,14,32,11.50
2013,09,24,14,33,11.50
2013,09,24,14,34,11.40
2013,09,24,14,35,11.40
2013,09,24,14,36,11.40
2013,09,24,14,37,11.30
2013,09,24,14,38,11.30
2013,09,24,14,39,11.30
2013,09,24,14,40,11.30
2013,09,24,14,41,11.20
2013,09,24,14,42,11.20
2013,09,24,14,43,11.20
2013,09,24,14,44,11.10
2013,09,24,14,45,11.10
2013,09,24,14,46,11.10
2013,09,24,14,47,11.10
2013,09,24,14,48,11.10
2013,09,24,14,49,11.10
2013,09,24,14,50,11.10
2013,09,24,14,51,11.10
2013,09,24,14,52,11.10
2013,09,24,14,53,11.10
2013,09,24,14,54,11.10
2013,09,24,14,55,11.10
2013,09,24,14,56,11.00
2013,09,24,14,57,11.00
2013,09,24,14,58,10.90
2013,09,24,14,59,10.90
2013,09,24,15,00,10.90
2013,09,24,15,01,10.90
2013,09,24,15,02,10.90
2013,09,24,15,03,10.90
2013,09,24,15,04,10.80
2013,09,24,15,05,10.80
2013,09,24,15,06,10.80
2013,09,24,15,07,10.80
2013,09,24,15,08,10.80
2013,09,24,15,09,10.80
2013,09,24,15,10,10.80
2013,09,24,15,11,10.80
2013,09,24,15,12,10.80
2013,09,24,15,13,10.80
2013,09,24,15,14,10.80
2013,09,24,15,15,10.80
2013,09,24,15,16,10.80
2013,09,24,15,17,10.80
2013,09,24,15,18,10.90
2013,09,24,15,19,10.90
2013,09,24,15,20,10.90
2013,09,24,15,21,10.90
2013,09,24,15,22,10.90
2013,09,24,15,23,11.00
2013,09,24,15,24,11.00
2013,09,24,15,25,11.00
2013,09,24,15,26,11.00
2013,09,24,15,27,10.90
2013,09,24,15,28,10.90
2013,09,24,15,29,10.90
2013,09,24,15,30,10.90
2013,09,24,15,31,10.90
2013,09,24,15,32,10.90
2013,09,24,15,33,10.90
2013,09,24,15,34,10.90
2013,09,24,15,35,10.90
2013,09,24,15,36,10.90
2013,09,24,15,37,10.90
2013,09,24,15,38,10.90
2013,09,24,15,39,10.90
2013,09,24,15,40,10.90
2013,09,24,15,41,10.90
2013,09,24,15,42,10.90
2013,09,24,15,43,10.90
2013,09,24,15,44,10.90
2013,09,24,15,45,10.80
2013,09,24,15,46,10.80
2013,09,24,15,47,10.80
2013,09,24,15,48,10.80
2013,09,24,15,49,10.80
2013,09,24,15,50,10.80
2013,09,24,15,51,10.80
2013,09,24,15,52,10.70
2013,09,24,15,53,10.70
2013,09,24,15,54,10.70
2013,09,24,15,55,10.70
2013,09,24,15,56,10.70
2013,09,24,15,57,10.70
2013,09,24,15,58,10.70
2013,09,24,15,59,10.70
2013,09,24,16,00,10.70
2013,09,24,16,01,10.70
2013,09,24,16,02,10.70
2013,09,24,16,03,10.70
2013,09,24,16,04,10.70
2013,09,24,16,05,10.70
2013,09,24,16,06,10.70
2013,09,24,16,07,10.70
2013,09,24,16,08,10.70
2013,09,24,16,09,10.70
2013,09,24,16,10,10.70
2013,09,24,16,11,10.70
2013,09,24,16,12,10.70
2013,09,24,16,13,10.70
2013,09,24,16,14,10.70
2013,09,24,16,15,10.70
2013,09,24,16,16,10.70
2013,09,24,16,17,10.70
2013,09,24,16,18,10.70
2013,09,24,16,19,10.70
2013,09,24,16,20,10.70
2013,09,24,16,21,10.70
2013,09,24,16,22,10.70
2013,09,24,16,23,10.70
2013,09,24,16,24,10.70
2013,09,24,16,25,10.70
2013,09,24,16,26,10.60
2013,09,24,16,27,10.60
2013,09,24,16,28,10.60
2013,09,24,16,29,10.60
2013,09,24,16,30,10.60
2013,09,24,16,31,10.60
2013,09,24,16,32,10.60
2013,09,24,16,33,10.60
2013,09,24,16,34,10.60
2013,09,24,16,35,10.60
2013,09,24,16,36,10.60
2013,09,24,16,37,10.60
2013,09,24,16,38,10.60
2013,09,24,16,39,10.60
2013,09,24,16,40,10.60
2013,09,24,16,41,10.60
2013,09,24,16,42,10.60
2013,09,24,16,43,10.60
2013,09,24,16,44,10.60
2013,09,24,16,45,10.60
2013,09,24,16,46,10.60
2013,09,24,16,47,10.60
2013,09,24,16,48,10.60
2013,09,24,16,49,10.60
2013,09,24,16,50,10.60
2013,09,24,16,51,10.60
2013,09,24,16,52,10.60
2013,09,24,16,53,10.60
2013,09,24,16,54,10.60
2013,09,24,16,55,10.60
2013,09,24,16,56,10.60
2013,09,24,16,57,10.60
2013,09,24,16,58,10.60
2013,09,24,16,59,10.60
2013,09,24,17,00,10.60
2013,09,24,17,01,10.60
2013,09,24,17,02,10.70
2013,09,24,17,03,10.60
2013,09,24,17,04,10.60
2013,09,24,17,05,10.60
2013,09,24,17,06,10.70
2013,09,24,17,07,10.70
2013,09,24,17,08,10.70
2013,09,24,17,09,10.70
2013,09,24,17,10,10.80
2013,09,24,17,11,10.80
2013,09,24,17,12,11.00
2013,09,24,17,13,11.20
2013,09,24,17,14,11.40
2013,09,24,17,15,11.60
2013,09,24,17,16,11.60
2013,09,24,17,17,11.60
2013,09,24,17,18,11.50
2013,09,24,17,19,11.50